Wetbulb
19.56 20.29 21.05 22.21 24.09 25.90 25.35 26.82 27.79 31.51 31.61 36.16 38.77 39.71 42.52 44.04 44.84 45.12 45.66 45.96 48.74 50.88 51.58 51.55 51.52 51.64 50.79 50.00 49.29 48.18 47.18 46.22 45.98 45.93 41.93 39.14 37.55 37.57 38.00 37.07 36.79 36.67 36.45 36.17
15.50 23.02 24.22 22.79 25.95 27.33 27.52 28.47 29.50 33.10 32.36 39.85 41.49 42.81 41.71 42.98 44.11 44.15 44.85 45.59 47.79 49.64 50.18 50.38 50.61 50.46 50.08 48.70 47.64 47.64 46.04 44.96 43.99 41.05 38.99 36.92 36.01 35.36 36.27 36.24 35.82 36.04 35.40 35.26
12.47 20.94 20.07 20.29 24.58 27.53 29.88 32.98 32.93 29.45 35.10 38.81 38.18 39.65 41.10 42.96 43.89 44.52 44.98 45.69 47.33 48.73 49.90 49.94 50.10 50.05 48.25 47.38 46.44 45.52 45.04 42.36 40.04 39.08 36.72 34.62 34.42 33.66 34.30 33.70 35.06 34.41 34.49 34.38
12.43 16.28 11.91 25.76 31.99 31.83 31.19 31.99 33.79 35.61 37.09 38.82 39.89 42.20 44.04 44.88 44.19 45.17 44.87 45.37 46.33 46.82 46.53 47.31 47.46 46.14 44.40 43.40 42.69 41.12 39.68 38.39 38.42 36.66 34.74 33.27 33.02 32.65 32.37 33.07 33.86 33.38 33.48 33.56
12.10 16.41 21.26 25.79 28.39 28.28 27.16 28.58 31.12 29.85 33.31 36.39 39.40 41.38 41.50 43.79 45.67 46.46 45.81 45.88 45.95 44.40 43.60 43.36 42.77 41.96 41.01 38.83 38.10 37.40 36.17 35.51 35.70 34.21 32.59 32.29 31.06 31.62 31.99 33.56 32.96 32.72 33.00 32.99
15.19 11.49 13.15 22.63 26.59 31.27 31.85 26.62 30.29 30.01 31.50 33.01 36.50 33.95 39.34 43.59 45.44 46.01 45.13 45.15 42.84 40.82 40.15 39.64 39.87 39.79 38.41 36.94 36.32 34.67 33.61 33.33 33.68 32.92 32.54 30.82 31.66 30.70 33.34 33.48 32.11 32.08 31.87 32.95
14.06 13.01 18.89 24.04 28.34 31.87 22.78 24.56 28.87 29.94 30.52 32.56 32.00 37.51 40.29 44.30 43.54 43.26 43.03 41.66 40.19 38.20 37.10 36.60 37.44 36.99 35.14 35.32 33.88 33.96 33.72 33.07 32.73 32.36 31.06 31.40 30.65 31.80 31.29 31.15 31.12 30.68 30.48 31.05
15.21 12.17 10.96 26.19 27.43 22.15 24.66 26.74 28.00 29.43 30.90 31.35 34.03 37.85 40.58 39.29 37.71 37.05 36.64 36.63 35.75 34.11 34.08 35.26 35.72 34.56 32.44 30.91 31.82 32.14 31.74 30.75 29.90 30.13 30.41 30.95 30.66 30.39 30.18 30.12 29.30 28.92 28.47 28.26
19.03 20.12 27.78 27.60 24.91 27.32 26.96 25.23 27.42 28.53 30.74 34.57 34.58 33.23 33.96 33.90 34.12 34.20 34.04 33.48 33.36 31.82 31.05 31.95 32.14 31.49 29.38 30.13 30.96 30.60 29.76 28.73 28.63 29.38 29.87 30.19 29.06 28.73 28.45 28.72 28.02 27.72 27.72 27.37
20.07 23.89 23.66 25.26 26.35 26.36 27.22 27.07 28.57 30.04 32.29 33.41 32.08 31.93 30.75 30.51 30.78 30.73 31.55 31.32 31.54 30.76 29.07 28.79 30.25 30.28 29.79 30.07 29.88 29.29 28.15 28.44 29.33 28.90 29.04 29.45 29.84 29.56 28.24 27.71 27.41 27.32 26.83 26.37
19.40 23.21 23.01 25.93 25.25 25.38 26.57 28.27 28.65 30.52 31.90 32.08 30.66 28.79 28.89 28.50 28.81 29.14 28.85 29.03 29.13 27.83 26.82 26.78 28.11 28.63 29.70 30.04 29.66 28.42 28.84 29.15 28.90 28.70 28.38 28.08 28.49 28.40 27.96 28.99 29.27 27.73 27.63 27.96
15.94 21.81 21.02 22.01 25.56 26.82 25.93 26.08 27.74 29.02 29.14 29.84 29.27 27.92 28.07 27.22 27.98 28.04 27.83 28.52 27.55 27.03 26.69 27.38 28.27 28.53 29.44 30.24 29.80 28.64 27.66 28.04 28.12 27.87 27.78 27.82 27.85 28.39 32.12 31.83 31.89 31.40 31.07 30.11
20.60 24.26 24.40 24.94 25.72 26.94 26.20 26.71 28.08 28.23 28.32 26.63 27.69 27.72 27.42 27.32 28.24 29.78 27.40 27.06 26.68 26.94 27.88 28.24 28.24 28.34 29.53 30.15 29.99 28.69 27.58 27.86 28.29 27.72 27.41 27.49 28.02 27.32 26.18 29.31 31.26 30.85 30.76 30.74
25.41 24.98 23.24 24.12 23.10 26.20 26.62 27.37 28.74 28.03 27.89 27.35 27.05 27.40 26.66 25.91 26.34 25.58 25.52 26.77 27.62 27.49 27.52 28.07 27.88 27.66 29.04 29.40 28.94 28.56 28.69 29.44 27.29 26.93 26.63 26.67 26.75 26.75 26.36 24.79 23.78 24.76 28.88 29.02
24.86 26.34 25.00 26.12 26.57 26.55 28.08 27.36 25.74 25.39 25.68 25.56 26.52 25.79 25.76 24.87 24.70 25.25 26.71 27.36 27.50 27.14 27.02 27.33 27.26 27.52 29.44 29.60 28.69 28.10 27.58 27.00 26.84 26.67 26.50 26.74 26.15 25.74 25.54 24.87 23.69 23.42 24.66 26.11
25.12 25.35 25.23 24.22 24.45 25.64 25.98 25.79 24.42 24.58 25.31 25.40 25.05 25.01 25.62 26.03 26.30 26.94 27.68 27.44 25.40 24.77 26.24 26.67 26.50 27.47 28.58 28.69 28.21 27.81 27.54 28.33 27.55 26.48 26.08 25.61 25.59 25.06 24.54 23.88 23.24 22.97 22.84 23.80
21.72 21.00 22.30 22.10 22.79 23.56 24.08 25.34 25.26 25.03 25.12 25.03 25.16 25.87 25.69 25.52 25.05 24.83 25.72 26.48 26.40 26.08 26.68 26.75 26.55 28.25 28.83 29.03 28.59 28.32 27.83 26.81 27.61 26.09 25.41 25.19 24.97 24.35 23.80 23.32 22.41 22.14 22.69 25.26
23.88 23.84 24.03 23.81 22.97 23.01 23.32 24.11 24.61 24.71 24.49 25.00 25.49 25.33 24.69 24.04 23.36 24.19 25.24 25.89 25.21 24.94 25.55 26.69 27.70 27.98 27.68 27.89 27.88 28.01 27.09 26.08 25.90 24.99 24.86 24.36 24.06 24.01 23.33 22.53 22.11 22.03 22.64 23.35
22.44 21.79 22.95 23.68 23.93 23.75 23.70 23.22 23.57 24.39 25.13 25.31 24.41 23.40 23.82 23.83 23.89 24.42 25.41 24.78 24.23 23.88 25.17 27.48 28.31 27.91 27.26 28.02 27.74 27.09 26.18 25.81 25.15 24.61 24.81 24.71 23.42 23.13 22.34 22.15 21.88 22.04 22.36 22.28
20.07 21.26 21.62 21.33 22.08 22.32 22.03 22.93 22.90 23.02 23.84 24.02 23.72 22.86 22.20 22.65 23.62 23.94 24.65 23.86 25.06 25.71 27.02 27.09 27.46 27.02 27.15 27.47 27.53 26.63 26.34 25.76 24.79 23.80 23.24 22.68 22.45 22.31 22.11 21.71 21.66 21.65 21.96 21.80
19.14 19.34 19.20 19.21 19.03 20.13 20.77 21.88 21.86 21.04 22.08 23.11 22.10 21.28 21.35 22.62 23.94 24.36 23.44 22.43 24.75 26.80 27.34 27.67 26.99 26.65 27.33 26.96 26.37 26.00 25.30 24.57 24.12 23.27 22.15 21.71 21.19 20.98 20.91 20.93 21.02 21.03 21.13 21.22
17.95 17.79 18.01 18.37 18.27 17.95 19.24 20.14 20.75 20.67 20.86 21.06 21.63 22.03 21.65 21.34 22.15 22.64 24.11 24.55 26.49 27.43 26.74 26.95 26.83 27.46 27.30 26.79 25.68 25.01 24.04 22.89 21.96 21.42 20.77 20.76 20.71 20.31 20.08 20.30 20.46 20.97 21.04 21.15
17.20 17.38 17.37 17.26 17.15 17.56 18.46 18.66 18.92 19.26 18.75 19.07 19.21 19.52 19.42 20.06 21.52 22.23 21.61 25.53 26.65 27.12 26.63 26.78 28.74 28.16 27.29 25.38 24.60 23.41 22.14 21.49 21.20 20.95 20.79 20.85 20.56 20.34 20.26 19.97 20.66 20.54 20.62 20.81
16.16 16.44 16.66 17.81 17.89 17.19 15.89 16.77 17.91 18.39 18.78 19.33 19.32 19.65 20.35 21.07 21.65 23.12 25.14 27.55 27.75 26.33 25.94 28.16 28.46 27.63 25.77 24.45 23.65 22.63 22.35 22.11 21.69 21.54 21.06 21.19 21.25 20.92 20.85 20.31 20.14 21.03 20.54 20.77
14.98 15.27 15.44 15.51 15.52 15.81 16.46 16.85 17.84 17.87 18.29 18.77 19.21 19.79 20.29 20.98 21.74 21.70 23.74 26.20 26.30 24.93 25.16 28.65 27.88 26.48 24.38 23.78 23.08 22.34 22.15 22.09 21.81 21.52 21.29 21.21 21.18 20.97 20.93 20.42 19.52 20.69 21.70 20.35
14.13 13.48 14.28 14.76 14.79 15.91 17.53 17.16 15.91 17.60 17.51 17.82 18.96 19.70 20.39 21.24 22.54 22.42 23.51 23.95 24.22 24.71 26.02 28.12 25.25 23.83 23.58 23.11 22.52 22.04 21.88 21.98 22.16 21.89 21.14 21.26 21.32 20.87 20.10 19.64 19.67 19.31 19.28 19.09
13.08 16.63 13.48 14.13 14.98 15.25 16.91 17.12 16.03 15.83 17.15 17.88 18.21 19.69 20.08 20.86 21.89 21.94 22.92 22.61 22.67 23.41 24.25 24.60 24.08 23.00 22.91 23.01 21.79 22.02 22.20 22.33 22.10 21.91 21.65 21.56 21.23 20.60 19.76 19.34 19.12 19.14 19.03 19.10
MSLP
1013.02 1011.64 1009.86 1008.21 1006.26 1004.92 1003.75 1003.03 1001.29 999.64 999.10 998.65 998.62 998.82 998.41 998.20 998.40 998.19 997.93 997.28 996.82 997.03 997.89 999.23 1000.75 1002.06 1003.27 1004.64 1006.24 1007.51 1008.98 1010.50 1011.77 1013.17 1014.68 1016.75 1018.44 1019.63 1020.72 1022.01 1023.29 1024.20 1024.84 1025.84
1012.75 1010.29 1008.70 1006.90 1005.26 1003.85 1003.02 1002.33 1001.36 1000.25 999.25 999.39 999.30 998.99 998.85 998.55 998.34 998.54 998.45 998.20 997.90 998.22 998.77 999.86 1000.80 1002.12 1003.69 1004.80 1006.45 1007.88 1007.84 1010.48 1012.16 1013.52 1014.57 1016.61 1018.43 1019.81 1020.90 1022.12 1023.30 1024.37 1025.32 1025.75
1011.07 1009.29 1007.64 1005.43 1004.99 1003.72 1002.66 1001.64 1000.96 1000.18 999.50 999.66 999.32 998.94 998.43 998.11 998.27 998.69 998.97 999.30 998.77 999.42 999.77 1000.40 1001.25 1002.50 1003.71 1005.10 1006.52 1007.70 1009.12 1010.88 1012.23 1013.87 1014.82 1016.79 1018.33 1019.86 1021.12 1022.25 1023.43 1024.53 1025.46 1026.13
1011.95 1009.87 1007.40 1005.25 1004.77 1003.82 1002.74 1002.35 1001.60 1001.01 1000.34 999.93 999.35 998.95 998.26 998.15 998.32 998.73 999.26 1000.00 1000.27 1000.93 1001.53 1001.97 1002.76 1003.68 1004.73 1005.70 1007.06 1008.02 1010.27 1011.40 1012.68 1013.84 1015.02 1016.88 1018.60 1019.91 1021.71 1022.56 1023.61 1024.73 1025.75 1026.40
1011.98 1009.59 1007.43 1005.51 1005.38 1004.75 1004.07 1003.59 1003.47 1002.94 1001.84 1000.83 999.91 999.27 998.35 998.33 998.41 998.76 999.33 1000.27 1000.82 1001.90 1002.68 1003.38 1004.02 1004.88 1005.83 1007.01 1007.87 1009.08 1010.56 1011.69 1012.94 1014.02 1015.65 1017.11 1018.99 1020.18 1021.99 1022.72 1023.99 1025.18 1026.15 1026.71
1012.00 1010.32 1007.72 1007.35 1006.73 1005.46 1004.84 1004.35 1004.35 1004.29 1003.35 1002.22 1000.83 999.47 998.14 998.44 998.94 999.69 1000.36 1000.94 1001.92 1002.76 1003.76 1004.44 1005.27 1005.93 1006.65 1007.61 1008.74 1009.91 1011.16 1012.20 1013.84 1014.60 1015.85 1018.18 1019.49 1021.11 1021.99 1023.35 1024.58 1025.59 1026.44 1026.92
1012.06 1011.08 1009.10 1008.82 1007.19 1005.26 1005.77 1006.94 1005.73 1005.47 1004.54 1003.38 1002.49 1001.04 1000.63 1000.22 1000.42 1000.96 1001.47 1002.28 1003.36 1004.43 1005.04 1005.74 1006.45 1007.14 1007.76 1008.76 1009.87 1010.79 1012.00 1013.46 1014.65 1015.52 1017.38 1019.04 1020.87 1021.57 1022.74 1024.00 1025.13 1026.14 1026.89 1027.49
1012.60 1011.50 1010.32 1009.92 1008.07 1008.40 1009.01 1007.91 1007.13 1005.72 1005.20 1004.15 1003.22 1002.03 1001.62 1001.94 1002.24 1002.68 1003.35 1004.05 1004.81 1005.66 1006.66 1007.25 1007.92 1008.33 1009.43 1010.43 1011.14 1012.16 1013.47 1014.18 1015.58 1017.32 1018.46 1020.36 1021.09 1022.67 1023.45 1024.61 1025.64 1026.75 1027.32 1027.60
1012.71 1010.90 1010.60 1011.14 1011.08 1010.53 1009.89 1008.79 1007.35 1006.45 1005.57 1004.71 1003.88 1003.59 1003.47 1003.61 1003.92 1004.29 1004.92 1005.46 1006.33 1007.28 1008.24 1008.86 1009.88 1010.31 1010.51 1012.39 1012.42 1013.68 1013.80 1015.68 1016.96 1018.93 1020.58 1021.37 1022.36 1023.11 1024.27 1025.63 1026.56 1027.03 1027.39 1027.76
1013.11 1011.79 1011.73 1011.24 1011.20 1011.01 1010.25 1009.09 1007.96 1007.08 1006.19 1005.43 1005.00 1004.99 1005.06 1005.12 1005.67 1006.08 1006.73 1007.12 1008.19 1009.00 1009.51 1010.29 1011.40 1011.88 1012.44 1013.24 1013.92 1014.06 1015.44 1017.46 1019.30 1020.41 1021.67 1022.39 1022.95 1024.65 1025.49 1026.34 1026.76 1027.18 1027.40 1027.97
1013.51 1012.45 1012.02 1011.27 1011.86 1011.54 1010.61 1009.87 1008.75 1007.85 1006.99 1006.41 1006.24 1006.48 1006.58 1006.90 1007.35 1007.91 1008.51 1009.28 1009.99 1010.64 1011.20 1012.00 1012.74 1013.66 1014.65 1014.84 1014.80 1015.94 1017.52 1019.34 1020.57 1021.36 1021.88 1023.10 1024.62 1025.84 1026.64 1026.97 1026.95 1027.00 1027.54 1027.82
1014.52 1014.05 1014.15 1012.84 1012.82 1012.52 1011.20 1010.15 1009.43 1008.67 1008.11 1007.92 1007.76 1007.83 1008.20 1008.63 1009.02 1009.64 1010.36 1011.04 1011.82 1012.33 1012.61 1013.37 1013.83 1014.84 1016.04 1016.23 1016.81 1018.09 1019.41 1020.53 1021.40 1022.03 1023.12 1024.50 1025.91 1026.66 1027.13 1027.13 1027.23 1027.46 1027.75 1028.01
1015.41 1015.00 1014.68 1013.96 1013.55 1012.89 1011.88 1011.09 1010.46 1009.89 1009.72 1009.54 1009.70 1009.66 1009.98 1010.42 1011.01 1011.38 1012.17 1012.67 1013.41 1013.72 1014.11 1014.75 1015.49 1016.50 1017.79 1018.09 1018.45 1019.20 1020.23 1021.46 1022.53 1023.56 1024.58 1025.53 1026.13 1026.77 1027.08 1027.41 1027.66 1027.98 1028.38 1028.72
1015.65 1015.20 1014.87 1014.84 1014.35 1013.57 1012.97 1012.58 1012.14 1011.97 1011.75 1011.48 1011.58 1011.74 1012.00 1012.35 1012.95 1013.12 1013.76 1014.46 1014.93 1015.30 1015.83 1016.51 1017.20 1018.19 1019.04 1019.32 1019.54 1020.17 1021.31 1022.59 1023.48 1024.29 1025.25 1025.82 1026.42 1027.06 1027.20 1027.72 1028.23 1028.89 1028.89 1028.85
1015.77 1015.29 1015.07 1015.05 1014.57 1014.25 1013.89 1013.73 1013.46 1013.41 1013.41 1013.37 1013.45 1013.54 1013.88 1014.22 1014.47 1015.02 1015.56 1016.07 1016.45 1016.83 1017.59 1018.17 1018.82 1019.70 1020.05 1020.42 1020.78 1021.76 1022.48 1023.26 1024.01 1024.77 1025.64 1026.16 1026.83 1027.19 1027.63 1028.22 1028.52 1028.77 1029.15 1029.31
1016.54 1016.12 1015.80 1015.50 1015.48 1015.36 1015.20 1015.08 1014.83 1014.91 1014.93 1015.03 1015.03 1015.25 1015.61 1016.00 1016.33 1016.72 1017.25 1017.66 1017.79 1018.65 1019.25 1019.55 1020.07 1020.87 1021.16 1021.69 1022.00 1022.71 1023.24 1023.93 1024.47 1025.28 1026.05 1026.58 1027.22 1027.51 1028.20 1028.49 1028.62 1029.02 1029.57 1029.98
1017.33 1017.14 1017.01 1016.82 1016.77 1016.62 1016.57 1016.54 1016.33 1016.35 1016.38 1016.49 1016.81 1017.04 1017.25 1017.66 1018.00 1018.42 1018.85 1019.24 1019.53 1020.04 1020.45 1020.74 1021.40 1021.96 1022.19 1022.47 1022.81 1023.38 1024.06 1024.62 1025.41 1026.09 1026.61 1027.02 1027.59 1028.15 1028.50 1028.78 1029.44 1029.77 1030.05 1030.20
1018.83 1018.60 1018.25 1018.21 1018.07 1018.04 1018.06 1018.03 1017.98 1017.95 1018.06 1018.29 1018.43 1018.64 1018.91 1019.29 1019.67 1020.01 1020.39 1020.74 1021.02 1021.37 1021.78 1022.13 1022.58 1022.86 1023.12 1023.43 1023.77 1024.30 1024.85 1025.57 1026.04 1026.47 1027.17 1027.85 1028.06 1028.75 1029.37 1029.45 1029.71 1030.01 1030.49 1030.60
1020.31 1020.01 1019.98 1019.62 1019.57 1019.61 1019.62 1019.73 1019.80 1019.86 1019.89 1019.92 1019.91 1020.22 1020.54 1020.86 1021.12 1021.38 1021.72 1021.93 1022.20 1022.48 1023.15 1023.34 1023.46 1023.50 1023.81 1024.16 1024.51 1024.96 1025.57 1026.20 1026.73 1027.27 1027.92 1028.55 1028.81 1029.18 1029.48 1029.72 1030.15 1030.49 1030.65 1030.75
1022.00 1021.93 1021.91 1021.76 1021.63 1021.48 1021.57 1021.53 1021.34 1021.17 1021.25 1021.03 1021.13 1021.41 1021.63 1022.05 1022.30 1022.43 1022.67 1022.79 1023.12 1023.41 1023.76 1023.99 1024.14 1024.36 1024.66 1025.10 1025.51 1025.95 1026.40 1026.75 1027.20 1027.81 1028.33 1028.82 1029.24 1029.47 1029.79 1030.45 1030.98 1031.01 1031.08 1031.18
1024.01 1023.98 1023.58 1023.40 1023.45 1023.37 1023.06 1022.86 1022.60 1022.61 1022.78 1022.60 1022.57 1022.89 1023.20 1023.48 1023.56 1023.65 1023.63 1023.80 1024.37 1024.41 1024.53 1024.73 1024.87 1025.11 1025.37 1025.77 1026.14 1026.53 1027.00 1027.49 1027.99 1028.56 1029.12 1029.50 1029.92 1030.30 1030.65 1030.87 1030.97 1031.09 1031.15 1031.26
1025.63 1025.31 1025.26 1025.18 1024.97 1024.88 1024.85 1024.70 1024.40 1024.29 1024.22 1024.22 1024.23 1024.29 1024.40 1024.63 1024.74 1024.84 1024.95 1024.91 1025.16 1025.28 1025.40 1025.58 1025.81 1026.02 1026.29 1026.67 1027.07 1027.51 1027.98 1028.44 1028.89 1029.27 1029.60 1029.93 1030.24 1030.56 1030.85 1031.08 1031.21 1031.31 1031.36 1031.34
1026.83 1026.63 1026.50 1026.28 1026.23 1026.25 1026.21 1026.02 1025.85 1025.69 1025.65 1025.56 1025.63 1025.69 1025.63 1025.72 1025.73 1025.60 1025.71 1025.94 1025.85 1025.97 1026.09 1026.23 1026.26 1026.52 1026.95 1027.32 1027.71 1028.10 1028.50 1028.89 1029.25 1029.64 1030.05 1030.42 1030.68 1030.90 1031.11 1031.38 1031.44 1031.43 1031.34 1031.26
1028.15 1028.01 1027.92 1027.79 1027.62 1027.32 1027.26 1027.52 1027.24 1026.88 1026.72 1026.69 1026.61 1026.61 1026.44 1026.32 1026.47 1026.56 1026.48 1026.30 1026.30 1026.45 1026.55 1026.56 1026.69 1027.05 1027.49 1027.83 1028.16 1028.55 1028.92 1029.26 1029.67 1030.12 1030.47 1030.70 1030.99 1031.25 1031.37 1031.48 1031.46 1031.28 1031.14 1031.10
1029.46 1029.23 1028.99 1028.82 1028.57 1028.36 1028.17 1027.92 1027.58 1027.66 1027.60 1027.45 1027.30 1027.19 1027.19 1027.17 1027.08 1027.25 1026.98 1026.81 1026.91 1026.95 1026.93 1026.89 1027.01 1027.44 1027.94 1028.23 1028.61 1029.01 1029.35 1029.67 1029.97 1030.29 1030.63 1030.92 1031.19 1031.35 1031.36 1031.42 1031.43 1031.19 1030.95 1031.04
1030.36 1030.24 1030.06 1029.80 1029.53 1029.28 1029.04 1029.02 1028.85 1028.57 1028.32 1028.09 1027.97 1027.88 1027.91 1027.85 1027.71 1027.64 1027.51 1027.46 1027.46 1027.33 1027.24 1027.27 1027.60 1028.08 1028.37 1028.63 1028.95 1029.34 1029.60 1029.85 1030.12 1030.41 1030.75 1030.94 1031.09 1031.15 1031.30 1031.42 1031.36 1031.26 1031.07 1030.97
1031.17 1030.75 1030.66 1030.40 1030.33 1030.18 1029.83 1029.50 1029.20 1028.99 1028.75 1028.46 1028.31 1028.40 1028.33 1028.19 1028.11 1028.05 1027.91 1027.89 1027.96 1027.97 1027.98 1028.06 1028.18 1028.64 1028.91 1029.07 1029.40 1029.63 1029.80 1030.01 1030.21 1030.45 1030.72 1030.86 1031.00 1031.15 1031.27 1031.27 1031.09 1031.05 1030.98 1030.80
Wind_Speed
11 19 18 17 18 17 10 10 12 16 21 13 13 16 7 4 8 8 7 1 7 14 17 20 20 19 18 19 21 21 22 19 20 20 20 19 17 17 16 15 13 12 13 11
9 11 12 17 17 17 16 14 14 20 17 8 8 11 9 13 15 5 1 2 8 13 18 19 18 17 18 19 19 19 22 19 18 19 21 20 18 17 17 15 14 14 12 11
7 10 17 6 1 12 7 9 12 16 19 9 13 14 15 15 6 6 4 5 10 12 15 14 16 18 18 18 18 17 18 20 20 20 22 19 18 17 16 15 15 13 12 11
8 10 3 5 8 10 9 13 9 13 11 8 11 14 14 10 8 7 8 8 10 8 7 9 12 14 16 18 18 19 19 19 20 21 22 20 19 17 14 13 15 12 12 11
4 5 7 3 12 13 11 7 16 16 16 16 15 9 13 7 9 10 12 10 11 9 11 11 14 16 18 17 19 19 18 19 20 20 22 21 18 17 13 14 13 11 10 11
5 5 4 9 16 18 9 3 16 19 17 19 15 8 9 3 6 8 9 11 12 12 10 11 11 14 17 18 19 19 19 19 17 20 21 18 17 15 14 14 13 10 11 9
9 4 7 14 19 17 1 6 23 18 17 17 12 12 12 7 9 10 11 13 14 12 10 10 11 12 14 15 15 17 19 19 18 19 19 17 15 14 14 13 12 11 11 8
4 4 6 18 8 9 14 18 18 20 16 19 16 14 1 9 12 13 14 14 14 13 11 11 10 13 14 15 15 17 19 20 20 18 14 13 16 13 14 12 12 10 9 8
5 3 7 12 7 11 15 16 18 19 19 15 5 7 9 11 13 14 15 14 14 14 14 14 12 12 20 14 18 19 22 21 20 18 15 14 14 14 11 10 8 8 7 6
8 1 14 14 13 16 17 15 17 15 12 4 7 9 13 13 12 13 14 15 15 15 16 18 15 15 15 16 17 22 23 20 16 16 15 12 11 9 8 7 7 7 7 6
11 9 16 7 19 20 17 12 10 8 6 7 11 12 12 13 14 14 16 14 15 16 17 18 18 17 14 17 20 22 19 16 14 12 14 13 10 8 7 6 6 7 7 7
5 16 11 19 16 17 13 11 8 6 11 12 12 13 14 14 13 15 15 15 16 17 19 19 20 20 16 17 18 18 16 12 12 11 11 10 9 9 13 14 15 14 12 8
11 14 14 14 7 12 8 9 10 13 13 15 14 14 17 16 16 21 16 17 16 17 18 19 19 18 13 13 15 16 15 13 11 11 9 9 8 9 9 11 16 14 12 11
12 11 7 6 4 8 11 12 16 16 15 16 16 16 16 17 18 18 17 16 17 17 18 17 17 16 13 14 16 16 15 20 10 9 8 8 8 8 8 8 7 6 9 8
7 5 6 6 8 9 8 10 15 14 15 16 16 17 16 18 19 18 17 17 17 17 16 16 16 15 14 14 15 14 12 10 10 9 8 9 9 8 8 7 7 6 5 6
8 9 10 11 12 11 11 12 14 13 14 15 17 18 18 17 17 16 15 14 15 15 14 15 15 12 12 12 13 12 12 20 13 9 8 9 8 8 7 7 6 6 4 3
9 10 11 12 12 13 14 12 13 14 15 17 17 17 17 16 17 17 16 16 15 14 12 13 13 12 11 11 12 9 9 10 15 9 9 8 8 7 6 6 5 4 4 4
14 14 15 13 12 14 15 16 15 16 15 15 15 14 15 14 13 13 12 13 14 14 13 12 11 11 12 12 11 9 9 9 9 9 8 8 8 7 6 6 5 5 4 4
17 18 17 17 16 15 14 14 14 13 12 12 14 14 14 13 13 13 13 13 14 13 11 11 15 13 12 13 11 9 9 10 10 9 8 10 8 7 6 6 5 5 4 3
20 19 17 18 18 16 13 11 13 14 12 12 13 13 13 12 11 12 12 13 11 8 10 11 11 11 11 12 12 8 9 10 9 8 7 7 6 6 6 7 5 3 3 2
17 16 17 18 16 16 15 13 13 14 13 13 13 12 12 10 10 10 11 9 9 9 10 11 8 7 7 9 8 8 8 8 8 8 7 6 7 6 5 4 4 3 3 2
14 14 15 14 14 14 14 12 12 12 12 12 11 11 11 10 10 10 9 8 6 10 6 6 6 9 9 11 7 7 8 8 7 6 6 5 5 5 4 3 3 2 1 1
12 13 13 13 12 12 12 12 12 12 11 10 10 9 8 6 5 5 7 5 5 7 5 4 9 14 13 6 6 7 8 7 6 6 5 5 4 4 3 2 1 1 2 2
11 12 11 10 10 11 13 10 8 9 9 9 9 8 6 5 6 5 4 5 10 7 4 3 10 12 9 5 6 6 6 6 6 5 4 5 3 2 2 2 0 1 1 2
9 10 11 10 9 8 9 9 8 8 7 8 8 7 7 5 3 2 4 5 8 4 3 5 12 11 5 5 5 5 5 4 4 4 3 3 3 2 1 0 2 2 2 2
9 6 6 9 8 7 7 6 4 5 5 5 5 5 4 3 3 3 3 4 4 4 2 5 6 5 5 5 5 5 4 4 4 4 3 3 3 2 1 2 2 2 2 3
8 10 7 7 7 7 7 6 5 5 5 4 4 3 3 3 3 3 3 3 3 4 5 5 5 5 4 4 4 4 3 3 3 4 3 3 3 2 1 2 2 3 3 3
Wind_Direction
285 277 277 274 279 286 285 283 240 229 227 233 268 298 296 329 337 339 357 330 185 200 183 183 182 178 171 165 164 162 160 163 164 156 142 138 140 140 136 133 135 134 133 136
269 269 261 287 296 291 273 263 261 253 259 261 282 283 278 280 300 291 2 207 164 178 172 173 174 171 165 162 163 163 150 159 154 146 137 136 137 137 132 130 131 136 140 136
289 320 313 311 45 326 293 255 243 241 251 260 263 264 267 275 280 239 173 172 149 177 175 168 165 162 158 152 150 147 153 150 146 145 134 135 133 134 132 130 135 135 135 137
277 301 275 63 241 285 330 31 339 284 286 272 263 262 275 272 272 209 154 157 143 130 118 127 135 136 132 137 138 137 147 146 143 141 132 132 133 129 132 130 133 133 136 133
246 261 325 296 8 10 355 53 33 356 346 339 303 265 267 239 219 198 170 166 150 131 129 130 132 135 133 132 133 137 142 139 139 137 132 129 129 127 133 124 128 128 131 136
206 253 215 53 337 323 277 204 15 346 337 329 324 237 258 197 192 159 151 144 134 122 115 121 129 136 136 138 140 137 138 130 135 129 122 123 122 130 123 125 122 122 122 120
244 309 286 1 333 311 294 5 325 325 323 320 310 309 330 96 106 119 123 124 116 110 111 114 121 125 122 128 132 130 124 122 120 113 117 118 121 111 114 114 116 118 115 113
236 253 266 9 347 19 320 315 308 312 323 313 304 296 130 104 105 108 110 109 104 99 99 97 108 114 107 106 110 112 115 110 105 108 106 114 108 113 108 113 115 120 124 117
255 306 345 5 354 334 321 311 310 315 321 319 12 68 94 100 100 103 106 99 91 93 91 86 87 105 108 110 112 111 100 100 98 97 103 104 111 102 99 106 123 134 131 122
321 159 336 314 355 349 337 323 313 318 319 345 92 94 92 87 89 94 95 100 100 95 89 87 85 88 90 109 110 104 96 94 102 104 105 97 89 97 109 127 130 133 125 123
283 297 334 100 343 338 326 329 336 347 23 80 99 90 94 94 94 91 90 89 96 98 95 93 90 86 93 97 95 92 95 99 100 99 93 92 87 103 112 117 129 126 124 123
297 323 305 302 320 332 334 350 6 48 70 72 83 91 91 87 88 90 90 96 95 96 95 95 91 87 85 89 92 99 101 100 100 96 93 100 112 118 114 111 109 107 108 110
284 301 297 326 345 332 5 34 57 69 76 82 75 81 83 88 86 89 86 89 91 93 94 94 94 94 97 101 101 102 103 104 105 104 111 122 125 125 125 102 94 94 102 100
294 283 265 20 5 36 57 59 64 63 65 72 77 74 80 84 86 82 82 86 88 86 85 87 88 88 94 103 103 101 103 111 112 115 120 122 123 131 125 127 123 107 91 80
16 66 84 82 65 59 57 73 76 74 75 74 75 80 81 83 83 82 82 81 83 83 86 89 89 93 99 96 99 107 111 111 110 112 119 122 122 120 119 118 114 104 103 73
58 67 70 65 63 56 67 71 78 77 79 80 79 76 77 76 78 79 80 83 86 83 89 89 84 87 92 101 104 105 107 118 114 111 117 115 117 114 113 109 100 91 89 72
57 56 64 66 64 62 61 66 72 76 76 73 74 78 78 78 77 75 78 82 80 78 81 90 98 104 106 106 106 108 110 112 118 113 114 111 111 110 105 99 104 102 93 62
62 62 58 58 68 71 66 62 63 67 70 73 72 75 78 78 83 81 81 89 87 81 80 88 99 105 102 106 106 108 111 115 113 110 111 110 103 104 110 106 101 101 101 69
52 57 52 50 52 57 60 58 57 58 61 76 81 77 80 81 84 87 93 94 93 94 92 97 101 101 102 105 105 106 110 115 112 112 113 115 112 106 102 96 85 81 79 69
43 45 49 52 47 48 54 56 66 68 67 75 82 82 80 77 79 83 83 79 78 88 94 96 95 99 103 108 109 112 116 116 113 107 103 101 103 101 97 93 103 97 88 60
51 50 54 54 53 48 48 50 57 60 59 64 72 77 79 81 81 87 89 86 78 89 95 94 91 95 98 105 101 102 105 108 108 109 111 110 113 116 117 101 84 73 56 29
46 50 52 53 55 54 45 47 55 60 60 64 68 75 80 77 79 75 61 79 94 95 98 102 105 111 112 110 109 110 113 114 112 111 110 112 118 121 114 102 87 77 43 351
42 46 47 46 49 55 51 45 45 52 55 55 59 64 70 65 55 87 88 55 90 98 101 112 129 110 113 106 110 113 115 115 115 111 112 118 119 119 123 131 92 11 352 345
42 42 44 47 51 51 48 35 41 46 52 54 55 49 54 73 65 39 43 71 102 94 88 18 113 112 111 109 112 115 119 122 128 133 129 119 115 141 165 172 273 325 308 321
41 42 38 37 42 42 34 23 35 32 36 44 44 42 41 38 63 41 37 59 73 62 45 104 114 115 114 116 120 123 128 136 141 150 159 167 175 187 163 207 311 306 311 312
37 37 36 37 33 23 22 22 29 21 30 32 45 36 34 33 40 46 42 61 46 38 65 109 114 118 124 132 136 144 143 152 169 177 176 194 193 206 199 290 299 301 297 294
26 36 24 28 22 14 4 15 17 9 6 8 20 21 9 17 26 50 52 62 59 64 89 98 105 119 134 138 149 152 154 160 163 166 185 186 200 206 252 295 297 293 285 279